Location: *
(37.5724°S, 58.0067°E)
Time: 11:21:47
(UTC+00:00)

Cosmos 1420 Rocket - Pass Details

Date: 26 September 2020
Orbit: 755 x 780 km, 74.0° (Epoch: 29 October)

Event Time Altitude Azimuth Distance (km) Brightness Sun altitude
Rises 16:24:31 0° 199° (SSW) 3,272 7.9 -26.9°
Reaches altitude 10° 16:26:55 10° 198° (SSW) 2,342 7.0 -27.3°
Enters shadow 16:31:42 73° 194° (SSW) 820 4.1 -28.2°
